This is the latest recevied weather packets stored in our database for station/object KC3ROB-13. If no packets are shown the sender has not sent any weather packets the latest 1 day(s).
| Time | Temp. | Humidity | Pressure | Rain* | Wind** | Luminosity | Snow |
|---|---|---|---|---|---|---|---|
| 1778104230 | 21.67° C | 100% | 1002 hPa | 0 mm | - | - | - |
| 1778101834 | 21.67° C | 100% | 1001.7 hPa | 0 mm | - | - | - |
| 1778098833 | 22.22° C | 100% | 1001.7 hPa | 0 mm | - | - | - |
| 1778097635 | 20° C | 100% | 1001.7 hPa | 0 mm | - | - | - |
| 1778095234 | 18.89° C | 100% | 1002 hPa | 0 mm | - | - | - |
| 1778092236 | 18.33° C | 100% | 1002.7 hPa | 0 mm | - | - | - |
| 1778091033 | 18.33° C | 100% | 1002.7 hPa | 0 mm | - | - | - |
| 1778089234 | 17.78° C | 100% | 1003 hPa | 0 mm | - | - | - |
| 1778087433 | 17.78° C | 100% | 1003 hPa | 0 mm | - | - | - |
| 1778085035 | 17.78° C | 100% | 1003.4 hPa | 0 mm | - | - | - |
| 1778082634 | 17.78° C | 100% | 1004.4 hPa | 0 mm | - | - | - |
| 1778081434 | 17.78° C | 100% | 1004.4 hPa | 0 mm | - | - | - |
| 1778074833 | 20° C | 100% | 1004.1 hPa | 0 mm | - | - | - |
| 1778074234 | 19.44° C | 100% | 1004.1 hPa | 0 mm | - | - | - |
| 1778071833 | 19.44° C | 100% | 1004.4 hPa | 0 mm | - | - | - |
| 1778071233 | 19.44° C | 100% | 1004.4 hPa | 0 mm | - | - | - |
| 1778068836 | 19.44° C | 100% | 1004.1 hPa | 0 mm | - | - | - |
| 1778067634 | 18.33° C | 100% | 1004.1 hPa | 0 mm | - | - | - |
| 1778065834 | 18.33° C | 100% | 1004.1 hPa | 0 mm | - | - | - |
| 1778065235 | 18.33° C | 100% | 1004.1 hPa | 0 mm | - | - | - |
| 1778064033 | 17.78° C | 100% | 1004.1 hPa | 0 mm | - | - | - |
| 1778063434 | 17.78° C | 100% | 1004.1 hPa | 0 mm | - | - | - |
| 1778061633 | 17.22° C | 100% | 1004.1 hPa | 0 mm | - | - | - |
| 1778061033 | 17.22° C | 100% | 1004.1 hPa | 0 mm | - | - | - |
| 1778059232 | 17.78° C | 100% | 1004.1 hPa | 0 mm | - | - | - |
* Rain latest hour (hover to see other rain measurements)
** Current wind speed in m/s (hover to see current wind gust speed)